Peoria, IL

8:11 AM CDT on August 18, 2017 (GMT -0500)
Greater Peoria Regional

Weather History for KPIA - July, 2013

Change the Weather History Date:

Tuesday, July 23, 2013

  Actual Average Record
Temperature  
Mean Temperature 74 °F 75 °F  
Max Temperature 83 °F 85 °F 105 °F (1934)
Min Temperature 65 °F 65 °F 52 °F (1947)
Degree Days  
Heating Degree Days 0 0  
Month to date heating degree days 0 0  
Since 1 June heating degree days 18 18  
Since 1 July heating degree days 0 0  
Cooling Degree Days 9 10  
Month to date cooling degree days 281 249  
Year to date cooling degree days 611 552  
Since 1 June cooling degree days 504 471  
Growing Degree Days 24 (Base 50)    
Moisture  
Dew Point 63 °F    
Average Humidity 75    
Maximum Humidity 93    
Minimum Humidity 56    
Precipitation  
Precipitation 0.00 in 0.12 in 3.36 in (1993)
Month to date precipitation 0.65 2.90  
Year to date precipitation 30.36 20.76  
Snow  
Snow 0.00 in 0.00 in 0.00 in ()
Month to date snowfall 0.0 0.0  
Since 1 June snowfall 0.0 0.0  
Since 1 July snowfall 0.0 0.0  
Snow Depth 0.00 in    
Sea Level Pressure  
Sea Level Pressure 29.85 in    
Wind  
Wind Speed 7 mph (NNW)    
Max Wind Speed 14 mph    
Max Gust Speed 18 mph    
Visibility 10 miles    
Events      
T = Trace of Precipitation, MM = Missing Value Source: NWS Daily Summary

Daily Weather History Graph

Daily Weather History Graph

Search for Another Location

Airport or City:

Trip Planner

Search our weather history database for the weather conditions in past years. The results will help you decide how hot, cold, wet, or windy it might be!

Date:

Astronomy

Jul. 23, 2013 Rise Set
Actual Time 5:47 AM CDT 8:22 PM CDT
Civil Twilight 5:15 AM CDT 8:53 PM CDT
Nautical Twilight 4:36 AM CDT 9:33 PM CDT
Astronomical Twilight 3:52 AM CDT 10:17 PM CDT
Moon 8:49 PM CDT (7/23) 6:56 AM CDT (7/23)
Length of Visible Light 15h 38m
Length of Day
14h 34m
Full, 99% of the Moon is Illuminated
Jul 23
Full
Jul 29
Last Quarter
Aug 6
New
Aug 14
First Quarter
Aug 20
Full

Hourly Weather History & Observations

Time (CDT) Temp. Heat Index Dew Point Humidity Pressure Visibility Wind Dir Wind Speed Gust Speed Precip Events Conditions
12:54 AM 69.1 °F - 66.0 °F 90% 29.78 in 10.0 mi Calm Calm - 0.01 in   Scattered Clouds
1:54 AM 69.1 °F - 66.0 °F 90% 29.78 in 10.0 mi WSW 4.6 mph - N/A   Clear
2:54 AM 68.0 °F - 66.0 °F 93% 29.78 in 9.0 mi SW 5.8 mph - N/A   Clear
3:54 AM 68.0 °F - 64.9 °F 90% 29.78 in 10.0 mi SW 5.8 mph - N/A   Clear
4:54 AM 66.9 °F - 64.0 °F 90% 29.78 in 10.0 mi West 4.6 mph - N/A   Clear
5:54 AM 66.9 °F - 64.0 °F 90% 29.78 in 10.0 mi NNW 4.6 mph - N/A   Clear
6:54 AM 68.0 °F - 64.0 °F 87% 29.80 in 10.0 mi WNW 5.8 mph - N/A   Clear
7:54 AM 72.0 °F - 64.0 °F 76% 29.82 in 10.0 mi Variable 4.6 mph - N/A   Clear
8:54 AM 73.0 °F - 64.9 °F 76% 29.82 in 10.0 mi NW 5.8 mph - N/A   Scattered Clouds
9:54 AM 77.0 °F - 66.9 °F 71% 29.83 in 10.0 mi Variable 5.8 mph - N/A   Clear
10:54 AM 79.0 °F - 66.9 °F 66% 29.85 in 10.0 mi NNW 9.2 mph 16.1 mph N/A   Partly Cloudy
11:54 AM 79.0 °F - 66.0 °F 64% 29.86 in 10.0 mi NNW 6.9 mph - N/A   Scattered Clouds
12:54 PM 79.0 °F - 66.0 °F 64% 29.86 in 10.0 mi North 10.4 mph 18.4 mph N/A   Mostly Cloudy
1:04 PM 79.0 °F - 64.9 °F 62% 29.88 in 10.0 mi NW 10.4 mph - N/A   Scattered Clouds
1:54 PM 81.0 °F 82.5 °F 64.0 °F 56% 29.86 in 10.0 mi Variable 6.9 mph - N/A   Scattered Clouds
2:54 PM 78.1 °F - 62.1 °F 58% 29.86 in 10.0 mi NNW 9.2 mph - N/A   Clear
3:54 PM 77.0 °F - 62.1 °F 60% 29.87 in 10.0 mi North 10.4 mph 16.1 mph N/A   Clear
4:54 PM 77.0 °F - 60.1 °F 56% 29.87 in 10.0 mi NNE 9.2 mph - N/A   Clear
5:54 PM 75.0 °F - 60.1 °F 60% 29.86 in 10.0 mi North 8.1 mph - N/A   Clear
6:54 PM 73.9 °F - 59.0 °F 59% 29.87 in 10.0 mi North 4.6 mph - N/A   Clear
7:54 PM 72.0 °F - 60.1 °F 66% 29.88 in 10.0 mi NNW 3.5 mph - N/A   Clear
8:54 PM 70.0 °F - 61.0 °F 73% 29.90 in 10.0 mi NW 3.5 mph - N/A   Clear
9:54 PM 69.1 °F - 61.0 °F 75% 29.93 in 10.0 mi North 3.5 mph - N/A   Clear
10:54 PM 69.1 °F - 60.1 °F 73% 29.94 in 10.0 mi North 4.6 mph - N/A   Clear
11:54 PM 66.9 °F - 57.9 °F 73% 29.94 in 10.0 mi East 11.5 mph - N/A   Clear